Location: Bukovany
(49.8234°N, 14.6297°E)
Time: 07:18:41
(UTC+00:00)

UNK - Pass Details

Date: 17 November 2025
Orbit: 655 x 672 km, 98.4° (Epoch: 13 December)

Event Time Altitude Azimuth Distance (km) Brightness Sun altitude
Rises 16:27:37 0° 13° (NNE) 3,035 6.8 -11.6°
Reaches altitude 10° 16:29:52 10° 13° (NNE) 2,117 6.0 -11.9°
Maximum altitude 16:34:30 83° 285° (WNW) 685 3.8 -12.6°
Drops below altitude 10° 16:39:06 10° 199° (SSW) 2,099 6.7 -13.4°
Sets 16:41:18 0° 199° (SSW) 3,007 7.6 -13.7°
